Regional Weather Roundup
Issued by NWS Upton, NY

Current Version | Previous Version | Graphics & Text | Print | Product List | Glossary Off
Versions: 1 2 3 4 5 6 7 8 9 10 11 12 13 14 15 16 17 18 19 20 21 22 23 24 25 26 27 28 29 30 31 32 33 34 35 36 37 38 39 40 41 42 43 44 45 46 47 48 49 50

292
ASUS41 KOKX 231308
RWROKX

REGIONAL WEATHER ROUNDUP
NATIONAL WEATHER SERVICE NEW YORK NY
900 AM EDT SAT SEP 23 2017

NOTE: "FAIR" INDICATES FEW OR NO CLOUDS BELOW 12,000 FEET WITH NO
SIGNIFICANT WEATHER AND/OR OBSTRUCTIONS TO VISIBILITY.

NYZ071-072-176-178-NJZ106-104-231400-
NEW YORK CITY METRO AREA

CITY           SKY/WX    TMP DP  RH WIND       PRES   REMARKS
Central Park   SUNNY     72  54  53 VRB6      30.07R
Bronx Bot Gard   N/A     72  54  53 NW8       30.05R
LaGuardia APRT MOSUNNY   73  57  57 N13       30.03R
Kennedy INTL   MOSUNNY   74  57  55 N14       30.03R
Breezy Point     N/A     72 N/A N/A N7          N/A
Newark/Liberty MOSUNNY   75  56  51 N9        30.04R
Teterboro      SUNNY     73  55  53 N8        30.03R
$$

NYZ177-179-078>081-231400-
LONG ISLAND NEW YORK

CITY           SKY/WX    TMP DP  RH WIND       PRES   REMARKS
Jones Beach      N/A     72 N/A N/A N15         N/A
Matinecock PT    N/A     72 N/A N/A N9          N/A
Farmingdale    SUNNY     72  57  59 N15G21    30.01R
MacArthur/ISP  MOSUNNY   73  57  57 N12       30.00R
Shirley        SUNNY     74  60  61 N13       30.00R
Mt Sinai Harb    N/A    N/A N/A N/A N9          N/A
Westhampton    SUNNY     71  60  68 N16G24    30.00R
East Hampton   FAIR      68  61  77 N13G21    29.97R
Montauk          N/A     68  64  87 N13       29.98R
$$

NYZ052-065-067-231400-
HUDSON VALLEY

CITY           SKY/WX    TMP DP  RH WIND       PRES   REMARKS
White Plains   SUNNY     71  56  58 N16       30.04R
Larchmont Harb   N/A     70 N/A N/A NW6         N/A
Croton On Huds   N/A     75 N/A N/A NW6G12      N/A
Newburgh       SUNNY     66  55  68 CALM      30.11R
Montgomery     SUNNY     65  57  75 CALM      30.09R
Poughkeepsie   SUNNY     66  51  58 N7        30.08R
Albany         MOSUNNY   63  54  72 N6        30.11R
$$

NJZ001-105-106-008-010-013-015-019>022-104-231400-
NEW JERSEY

CITY           SKY/WX    TMP DP  RH WIND       PRES   REMARKS
Newark/Liberty MOSUNNY   75  56  51 N9        30.04R
Teterboro      SUNNY     73  55  53 N8        30.03R
Caldwell       SUNNY     71  55  56 N3        30.07R
Somerville     NOT AVBL
Linden         FAIR      73  53  50 CALM      30.04R
Perth Amboy      N/A     72 N/A N/A N6          N/A
Sussex         SUNNY     64  59  83 CALM      30.11R
Andover          N/A     65  58  78 CALM      30.11R
Trenton        SUNNY     72  55  55 N10       30.05R
Millville      SUNNY     74  60  61 N6        30.04R
Atlantic City  SUNNY     72  58  61 N9        30.02S
Wrightstown    SUNNY     72  57  58 N9        30.02R
Toms River     SUNNY     72  59  63 N8        30.03R
Belmar         SUNNY     74  58  57 N9        30.04R
$$

PAZ047>061-062-071-231400-
EASTERN PENNSYLVANIA

CITY           SKY/WX    TMP DP  RH WIND       PRES   REMARKS
Philadelphia   MOSUNNY   75  53  46 N9        30.05R
Allentown      SUNNY     69  56  62 CALM      30.09R
Scranton       SUNNY     61  56  83 W3        30.16R
$$

CTZ002-004>006-009-010-012-RIZ004-006-007-MAZ004-011-015-231400-
SOUTHERN NEW ENGLAND
 IN CT

CITY           SKY/WX    TMP DP  RH WIND       PRES   REMARKS
Bradley INTL   MOSUNNY   71  53  52 N9        30.05R
Hartford       SUNNY     71  53  52 N14       30.04R
Danbury        SUNNY     73  60  63 N8        30.07R
Wtrbury/Oxford SUNNY     69  58  67 N13       30.06R
Norwalk Harbor   N/A     70 N/A N/A N14         N/A
Bridgeport     SUNNY     73  56  54 N14G20    30.02R
Meriden        SUNNY     72  53  51 N12       30.03R
New Haven      SUNNY     72  53  51 N14G23    30.01R
Chester        FAIR      72  57  60 N7G14     30.01R
Groton         SUNNY     70  60  70 N15       29.97R
Wilimantic     MOSUNNY   71  57  61 N9G20     30.03R

 IN RI

CITY           SKY/WX    TMP DP  RH WIND       PRES   REMARKS
Providence     CLOUDY    64  63  96 N13       30.00R
Block Island   CLOUDY    65  63  93 NE17G29   29.97R
Westerly       CLOUDY    68  63  84 N12G20    29.98R
 IN MA

CITY           SKY/WX    TMP DP  RH WIND       PRES   REMARKS
Boston         CLOUDY    65  57  75 N13       30.02R
Worcester      CLOUDY    63  48  58 N10       30.06R
Westfield      SUNNY     70  53  54 N9        30.06R
Provincetown   FOG       60  60 100 NE15      29.99R VSB 1/2
Nantucket      CLOUDY    62  62 100 N16       29.92R FOG
$$

ANZ330-335-338-340-345-350-353-355-231400-
COASTAL MARINE OBSERVATIONS


STATION/POSITION TIME  SKY/WX   TEMP    WIND        PRES    VSBY  WAVE
                                AIR SEA DIR/SP/G                  HT/PER
                 (UTC)          (F)     (DEG/KT/KT) (MB)    (MI)  (FT/S)
NY HARB ENTRANCE 1150            71 70  330/ 12/ 14 1014.6          4/ 7
20 S FIRE ISLAND 1150            69 66  360/ 16/ 17 1014.5          5/ 7
GREAT SOUTH BAY  1230            70 69  360/ 12/ 14   N/A
23 SSW MONTAUK P 1150            65 63              1013.6          7/ 8
15 E BARNEGAT LI 1230               69                N/A           5/11
HUDSON CANYON    1150            67 69   10/ 19/ 23 1013.0          7/ 7
KINGS POINT      1230            70 71   30/ 10/ 12 1017.4
EXECUTION ROCKS  1245            71     360/  6/ 10   N/A
WESTERN LI SOUND NOT AVBL
CENTRAL LI SOUND NOT AVBL
EASTERN LI SOUND NOT AVBL
ROBBINS REEF     1230            70     340/  6/  9 1017.3
$$


>>>>>>>>>>>>>>>>>>>>>>>>>>>> KEY <<<<<<<<<<<<<<<<<<<<<<<<<<<
>                                                          <
>     SKY/WX - Sky Condition/Present Weather               <
>     TMP    - Temperature in Fahrenheit                   <
>     DP     - Dew Point in Fahrenheit                     <
>     RH     - Relative Humidity in Percent                <
>     WIND   - Direction (from) and Speed in MPH           <
>     PRES   - Mean Sea Level Pressure (inches of Hg)      <
>     WCI    - Wind Chill Index                            <
>     VSB    - VISIBILITY IN MILES                         <
>     HX     - HEAT INDEX                                  <
>     TC     - TEMPERATURE IN CELSIUS                      <
>     VRB    - VARIABLE WIND DIRECTION                     <
>                                                          <
>>>>>>>>>>>>>>>>>>>>>>>>>>>> KEY <<<<<<<<<<<<<<<<<<<<<<<<<<<




USA.gov is the U.S. government's official web portal to all federal, state and local government web resources and services.